Location: Melque
(41.0517°N, 4.4694°W)
Time: 12:46:47
(UTC+00:00)

SKYMED 2 - Pass Details

Date: 14 March 2026
Orbit: 622 x 624 km, 97.9° (Epoch: 14 April)

Event Time Altitude Azimuth Distance (km) Brightness Sun altitude
Rises 04:16:40 0° 122° (ESE) 2,896 7.5 -25.8°
Reaches altitude 10° 04:19:38 10° 100° (E) 1,994 6.9 -25.3°
Maximum altitude 04:22:08 15° 64° (ENE) 1,671 6.7 -24.8°
Drops below altitude 10° 04:24:40 10° 28° (NNE) 2,002 6.8 -24.4°
Sets 04:27:38 0° 6° (N) 2,914 7.3 -23.9°
